DELTA 1 DEB, 13533

Orbit data source: Space-Track

DELTA 1 DEB, 13533 is space debris in LEO originally from a launch on Thu, 29 Jul 1976 UTC launched from the Air Force Western Test Range (AFWTR). Debris objects in space refer to the collection of defunct objects orbiting the Earth. Examples of debris include non-operational satellites, rocket bodies, and fragments generated from explosions, collisions, or faulty payload assembly.

Loading next visibility...
Identifier
13533, 1976-077EF
Orbit
LEO
Country
Flag of USUS
Related business
Manufacturer
Unknown
Mission
Spacecraft
Bus & Motor
Unknown
Mass
Unknown
Launch date (UTC)
1976-07-29 (49 years ago)
Launch vehicle
Unknown
Launch site
Air Force Western Test Range (AFWTR)
Object type
Payload
Rocket body
Debris
Shape & HBR
Unknown shape, 1.1 m
Radar Cross Section
Small (<0.1 m²)

Expand to show TLE details & history
Last TLE update: 2 days ago

TLE from 2 days ago
0 DELTA 1 DEB
1 13533U 76077EF  25300.49458479  .00000058  00000-0  13580-2 0  9994
2 13533 101.8359 288.9702 0360777 298.9401 184.9365 11.74541870  7992
Epoch: 2025-10-27T11:52Z
TLE epoch observation values (Epoch: 2025-10-27T11:52:12.125Z)
Latitude
54.75488°
Longitude
-88.00444°
Altitude
2,099.658 km
Speed
6.738 km/s
True Right ascension
08h 24m 34s
True Declination
54° 37' 06"
Sunlit
Object was in daylight at epoch
Visualization orbit readout
Latitude
Unknown
Longitude
Unknown
Altitude
Unknown
Speed
Unknown
Apparent Right ascension
Unknown
Apparent Declination
Unknown
Sunlit
N/A
Visualization observer readout
Local Sidereal Time
07:58:44
Azimuth
Unknown
Elevation
Unknown
Doppler factor
Unknown
Orbital elements
Apogee altitude
2,089.395 km
Perigee altitude
1,499.692 km
Semi-major axis
8,172.68 km
Eccentricity
0.03608
Inclination
101.8359°
RAAN
288.9702°
Arg. of periapsis
298.9401°
True anomaly
184.59607°
Mean anomaly
184.9365°
Eccentric anomaly
184.7648°
Mean motion
2.93763 °/min
Orbital period
122.55 mins
BSTAR
0.001358
Loading maneuver chart data...
Computing Atmospheric mass density...
Loading historical data...
Loading historical data...
Loading historical data...
Loading historical data...
Loading historical data...
Loading historical data...
Loading historical data...

Documentation

Showing up to 5 results
|